Date String (YYYY-MM-DD hh:mm:ss) UTC,Instrument flags,absolute air pressure of the measurement (hPa),sample flow rate (lpm),inlet stack bypass flow (lpm),air temperature of the measurement (°C),ambient temperature measured by the external sensor (°C),aerosol sample conditioner tube jacket temperature (°C),OPC LED temperature (°C),internal box temperature (°C),relative humidity of the measurement (%),span deviation,mass concentration of particles derived from Lorenz-Mie calculation of OPC scattering (μg/m³),mass concentration of particles derived from Lorenz-Mie calculation of OPC scattering (μg/m³),mass concentration of particles derived from Lorenz-Mie calculation of OPC scattering (μg/m³)
DateTimeUTC,F1_M11,P_M11,Q1_M11,Q2_M11,T1_M11,T2_M11,T3_M11,T4_M11,T5_M11,U1_M11,ZSPAN_M11,X0_M11,X2_M11,X1_M11
2024-02-11 15:00:00,SystemResetWarning,0829.0,5.00,000.00,018.3,017.5,000.0,026.9,020.0,12.0,0000.0,0005.72,0004.07,0003.97
2024-02-11 15:01:00,SystemResetWarning,0829.0,5.00,000.00,018.3,017.6,000.0,027.0,020.1,12.0,0000.0,0005.71,0004.07,0003.97
2024-02-11 15:02:00,SystemResetWarning,0829.0,5.01,000.00,018.5,018.5,000.0,027.1,020.7,11.9,0000.0,0005.72,0004.07,0003.98
2024-02-11 15:03:00,SystemResetWarning,0829.0,4.99,000.00,018.8,019.4,000.0,027.1,021.2,11.7,0000.0,0005.64,0004.08,0003.99
2024-02-11 15:04:00,SystemResetWarning,0829.0,4.99,000.00,018.9,019.4,000.0,027.1,021.1,11.7,0000.0,0005.19,0004.09,0004.00
2024-02-11 15:05:00,SystemResetWarning,0829.0,5.00,000.00,018.9,019.2,000.0,027.1,020.8,11.7,0000.0,0005.23,0004.10,0004.01
2024-02-11 15:06:00,SystemResetWarning,0829.0,5.00,000.00,018.8,019.0,000.0,027.0,020.6,11.8,0000.0,0005.22,0004.11,0004.03
2024-02-11 15:07:00,SystemResetWarning,0829.0,5.00,000.00,018.8,018.7,000.0,027.0,020.5,11.8,0000.0,0005.20,0004.11,0004.03
2024-02-11 15:08:00,SystemResetWarning,0828.9,5.01,000.00,018.7,018.5,000.0,027.0,020.4,11.8,0000.0,0005.12,0004.10,0004.03
2024-02-11 15:09:00,SystemResetWarning,0828.9,5.01,000.00,018.7,018.4,000.0,027.0,020.3,11.9,0000.0,0005.12,0004.12,0004.04
2024-02-11 15:10:00,SystemResetWarning,0829.0,5.00,000.00,018.6,018.3,000.0,027.0,020.3,11.9,0000.0,0005.10,0004.13,0004.06
2024-02-11 15:11:00,SystemResetWarning,0829.0,5.01,000.00,018.6,018.1,000.0,026.9,020.2,12.0,0000.0,0005.08,0004.16,0004.09
2024-02-11 15:12:00,SystemResetWarning,0829.1,4.99,000.00,018.6,018.0,000.0,026.9,020.1,12.0,0000.0,0005.01,0004.17,0004.11
2024-02-11 15:13:00,SystemResetWarning,0829.1,4.99,000.00,018.5,018.0,000.0,026.9,020.1,12.1,0000.0,0005.13,0004.20,0004.12
2024-02-11 15:14:00,SystemResetWarning,0829.1,5.00,000.00,018.5,017.9,000.0,026.9,020.1,12.3,0000.0,0005.22,0004.22,0004.13
2024-02-11 15:15:00,SystemResetWarning,0829.0,5.01,000.00,018.4,017.9,000.0,026.9,020.1,12.5,0000.0,0005.25,0004.24,0004.14
2024-02-11 15:16:00,SystemResetWarning,0829.1,5.01,000.00,018.4,017.8,000.0,026.9,020.1,12.7,0000.0,0005.25,0004.25,0004.15
2024-02-11 15:17:00,SystemResetWarning,0829.1,5.00,000.00,018.4,017.8,000.0,026.8,020.0,12.8,0000.0,0005.27,0004.26,0004.16
2024-02-11 15:18:00,SystemResetWarning,0829.1,4.99,000.00,018.4,017.8,000.0,026.8,020.0,13.0,0000.0,0005.33,0004.28,0004.17
2024-02-11 15:19:00,SystemResetWarning,0829.1,5.00,000.00,018.4,017.8,000.0,026.8,020.0,13.1,0000.0,0005.37,0004.30,0004.20
2024-02-11 15:20:00,SystemResetWarning,0829.1,5.00,000.00,018.4,017.8,000.0,026.8,020.0,13.3,0000.0,0005.36,0004.31,0004.22
2024-02-11 15:21:00,SystemResetWarning,0829.1,5.01,000.00,018.3,017.8,000.0,026.8,020.0,13.4,0000.0,0005.36,0004.33,0004.24
2024-02-11 15:22:00,SystemResetWarning,0829.1,4.99,000.00,018.3,017.8,000.0,026.8,020.0,13.6,0000.0,0005.43,0004.35,0004.25
2024-02-11 15:23:00,SystemResetWarning,0829.1,4.99,000.00,018.3,017.8,000.0,026.8,020.1,13.7,0000.0,0005.45,0004.38,0004.28
2024-02-11 15:24:00,SystemResetWarning,0829.1,4.99,000.00,018.3,017.8,000.0,026.8,020.0,13.7,0000.0,0005.42,0004.39,0004.30
2024-02-11 15:25:00,SystemResetWarning,0829.1,5.00,000.00,018.3,017.8,000.0,026.8,020.0,13.8,0000.0,0005.32,0004.37,0004.31
2024-02-11 15:26:00,SystemResetWarning,0829.1,5.01,000.00,018.3,017.7,000.0,026.8,020.0,13.7,0000.0,0005.31,0004.39,0004.34
2024-02-11 15:27:00,SystemResetWarning,0829.1,5.00,000.00,018.3,017.7,000.0,026.8,020.0,13.8,0000.0,0005.39,0004.45,0004.38
2024-02-11 15:28:00,SystemResetWarning,0829.1,5.00,000.00,018.3,017.7,000.0,026.8,020.0,13.9,0000.0,0005.48,0004.49,0004.42
2024-02-11 15:29:00,SystemResetWarning,0829.1,5.00,000.00,018.3,017.8,000.0,026.8,020.0,13.9,0000.0,0005.59,0004.55,0004.46
2024-02-11 15:30:00,SystemResetWarning,0829.1,5.00,000.00,018.3,017.8,000.0,026.8,020.0,14.0,0000.0,0005.67,0004.59,0004.50
2024-02-11 15:31:00,SystemResetWarning,0829.1,5.00,000.00,018.3,017.8,000.0,026.8,020.0,14.1,0000.0,0005.75,0004.64,0004.55
2024-02-11 15:32:00,SystemResetWarning,0829.1,5.00,000.00,018.3,017.8,000.0,026.8,020.0,14.2,0000.0,0005.83,0004.69,0004.59
2024-02-11 15:33:00,SystemResetWarning,0829.1,5.01,000.00,018.3,017.8,000.0,026.8,020.0,14.2,0000.0,0005.83,0004.72,0004.63
2024-02-11 15:34:00,SystemResetWarning,0829.1,5.01,000.00,018.3,017.8,000.0,026.8,020.0,14.1,0000.0,0005.93,0004.76,0004.67
2024-02-11 15:35:00,SystemResetWarning,0829.1,5.00,000.00,018.2,017.8,000.0,026.8,020.0,14.0,0000.0,0006.04,0004.82,0004.72
2024-02-11 15:36:00,SystemResetWarning,0829.1,5.00,000.00,018.2,017.8,000.0,026.7,020.0,13.8,0000.0,0006.15,0004.87,0004.77
2024-02-11 15:37:00,SystemResetWarning,0829.1,5.00,000.00,018.2,017.8,000.0,026.7,020.0,13.9,0000.0,0006.72,0004.92,0004.80
2024-02-11 15:38:00,SystemResetWarning,0829.1,4.99,000.00,018.2,017.8,000.0,026.7,020.0,13.9,0000.0,0006.81,0004.93,0004.81
2024-02-11 15:39:00,SystemResetWarning,0829.2,5.00,000.00,018.2,017.8,000.0,026.7,020.0,13.9,0000.0,0006.81,0004.94,0004.83
2024-02-11 15:40:00,SystemResetWarning,0829.1,5.00,000.00,018.2,017.8,000.0,026.7,020.0,13.9,0000.0,0006.94,0004.94,0004.84
2024-02-11 15:41:00,SystemResetWarning,0829.1,5.00,000.00,018.2,017.8,000.0,026.7,020.0,13.9,0000.0,0007.10,0004.95,0004.86
2024-02-11 15:42:00,SystemResetWarning,0829.1,5.00,000.00,018.2,017.8,000.0,026.7,020.0,13.9,0000.0,0007.21,0004.95,0004.86
2024-02-11 15:43:00,SystemResetWarning,0829.1,5.00,000.00,018.2,017.8,000.0,026.7,020.0,14.1,0000.0,0007.93,0004.95,0004.86
2024-02-11 15:44:00,SystemResetWarning,0829.1,5.00,000.00,018.2,017.8,000.0,026.7,020.0,14.2,0000.0,0007.91,0004.95,0004.87
2024-02-11 15:45:00,SystemResetWarning,0829.1,5.01,000.00,018.2,017.8,000.0,026.7,020.0,14.2,0000.0,0007.93,0004.96,0004.88
2024-02-11 15:46:00,SystemResetWarning,0829.1,5.01,000.00,018.2,017.8,000.0,026.7,020.0,14.1,0000.0,0007.94,0004.96,0004.87
2024-02-11 15:47:00,SystemResetWarning,0829.1,5.00,000.00,018.2,017.8,000.0,026.7,020.0,14.0,0000.0,0007.96,0004.97,0004.87
2024-02-11 15:48:00,SystemResetWarning,0829.1,5.00,000.00,018.2,017.8,000.0,026.7,020.0,14.1,0000.0,0007.77,0004.98,0004.88
2024-02-11 15:49:00,SystemResetWarning,0829.1,5.00,000.00,018.2,017.8,000.0,026.7,020.0,14.1,0000.0,0007.71,0004.98,0004.87
2024-02-11 15:50:00,SystemResetWarning,0829.1,5.00,000.00,018.2,017.8,000.0,026.7,020.0,14.1,0000.0,0007.72,0004.97,0004.86
2024-02-11 15:51:00,SystemResetWarning,0829.1,5.00,000.00,018.2,017.8,000.0,026.7,020.0,14.1,0000.0,0007.63,0004.96,0004.85
2024-02-11 15:52:00,SystemResetWarning,0829.1,5.01,000.00,018.2,017.8,000.0,026.7,020.0,14.1,0000.0,0007.51,0004.94,0004.83
2024-02-11 15:53:00,SystemResetWarning,0829.1,5.00,000.00,018.2,017.8,000.0,026.7,020.0,14.5,0000.0,0007.39,0004.92,0004.82
2024-02-11 15:54:00,SystemResetWarning,0829.1,5.00,000.00,018.2,017.8,000.0,026.7,020.0,14.5,0000.0,0006.29,0004.91,0004.81
2024-02-11 15:55:00,SystemResetWarning,0829.1,5.00,000.00,018.2,017.8,000.0,026.7,020.0,14.3,0000.0,0007.10,0004.90,0004.79
2024-02-11 15:56:00,SystemResetWarning,0829.1,5.00,000.00,018.2,017.8,000.0,026.7,020.0,14.3,0000.0,0007.54,0004.89,0004.78
2024-02-11 15:57:00,SystemResetWarning,0829.1,5.00,000.00,018.2,017.8,000.0,026.7,020.0,14.4,0000.0,0007.57,0004.88,0004.77
2024-02-11 15:58:00,SystemResetWarning,0829.1,4.99,000.00,018.2,017.8,000.0,026.7,020.0,14.3,0000.0,0007.65,0004.89,0004.77
2024-02-11 15:59:00,SystemResetWarning,0829.1,4.99,000.00,018.2,017.8,000.0,026.7,020.0,14.3,0000.0,0007.64,0004.88,0004.76
